Location: Unspecified
(49.2170°N, 0.0000°E)
Time: 18:57:19
(UTC+00:00)

A-11 Canister half - Pass Details

Date: 25 January 2021
Orbit: 1516 x 1684 km, 47.2° (Epoch: 05 March)

Event Time Altitude Azimuth Distance (km) Brightness Sun altitude
Rises 22:40:06 0° 265° (W) 4,713 11.8 -54.3°
Reaches altitude 10° 22:43:11 10° 264° (W) 3,713 11.2 -54.6°
Enters shadow 22:43:30 11° 264° (W) 3,609 11.1 -54.6°
